Location: Ravensburg
(47.7866°N, 9.6124°E)
Time: 09:57:29
(UTC+02:00)

STARS - Pass Details

Date: 24 March 2026
Orbit: 575 x 588 km, 98.2° (Epoch: 18 April)

Event Time Altitude Azimuth Distance (km) Brightness Sun altitude
Rises 02:28:57 0° 14° (NNE) 2,800 ? -34.2°
Reaches altitude 10° 02:31:07 10° 16° (NNE) 1,896 ? -34.0°
Enters shadow 02:32:13 18° 17° (NNE) 1,445 ? -33.9°
